Regional Weather Roundup
Issued by NWS

Home | Current Version | Previous Version | Graphics & Text | Print | Product List | Glossary On
Versions: 1 2 3 4 5 6 7 8 9 10 11 12 13 14 15 16 17 18 19 20 21 22 23 24 25 26 27
000
ASUS45 KCYS 250410
RWRWY

WYOMING REGIONAL WEATHER ROUNDUP
NATIONAL WEATHER SERVICE CHEYENNE WY
1000 PM MDT SAT SEP 24 2016

NOTE:  "FAIR" INDICATES FEW OR NO CLOUDS BELOW 12,000 FEET
WITH NO SIGNIFICANT WEATHER AND/OR OBSTRUCTIONS TO VISIBILITY.

WYZ001-250500-
YELLOWSTONE NATIONAL PARK

CITY           SKY/WX    TMP DP  RH WIND       PRES   REMARKS
LK YELLOWSTONE   N/A     31  29  92 NW5       30.44R WCI  26
W YELLOWSTONE  NOT AVBL

$$
WYZ002>013-054>058-071-098>099-250500-
NORTHERN WYOMING

CITY           SKY/WX    TMP DP  RH WIND       PRES   REMARKS
JACKSON        FAIR      45  36  70 N5        30.38R
CODY           CLOUDY    49  41  74 SW5       30.31R
GREYBULL       CLOUDY    49  45  86 CALM      30.28R
WORLAND        CLOUDY    48  43  82 SW6       30.28R
SHERIDAN       CLOUDY    49  44  83 N12       30.25R
BUFFALO        CLOUDY    51  35  54 NW24G35   30.23R
GILLETTE       LGT RAIN  46  44  93 NW14G24   30.19R
HULETT         DRIZZLE   45  43  93 W13       30.14S
NEWCASTLE      DRIZZLE   45  43  93 NW17G23   30.16R

$$
WYZ014>020-022>026-101>103-250500-
CENTRAL WYOMING

CITY           SKY/WX    TMP DP  RH WIND       PRES   REMARKS
BIG PINEY      FAIR      37  32  82 N10       30.39R WCI  30
PINEDALE       FAIR      34  32  93 NW8       30.40S WCI  27
DUBOIS         FAIR      43  30  61 W17G23    30.36R
LANDER         FAIR      42  38  85 SE6       30.34R
RIVERTON       FAIR      43  39  86 SW6       30.35R
CASPER         CLOUDY    45  39  79 SW20      30.29R
DOUGLAS        FAIR      48  39  71 NW17      30.25R

$$
WYZ021-027>030-104>119-250500-
SOUTHERN WYOMING

CITY           SKY/WX    TMP DP  RH WIND       PRES   REMARKS
EVANSTON       FAIR      39  32  76 S3        30.43R
FORT BRIDGER   FAIR      42  36  78 W10       30.45R
ROCK SPRINGS   FAIR      41  34  76 W10       30.39R
DIXON          CLOUDY    43  40  86 CALM      30.40S
RAWLINS        CLOUDY    42  37  82 N5        30.38R
SARATOGA       CLOUDY    41  39  93 NW3       30.38R
LARAMIE        FAIR      38  33  82 NW12      30.34R WCI  30
CHEYENNE       FAIR      45  36  70 NW15G23   30.28R
TORRINGTON     FAIR      48  40  73 W6        30.22R
PINE BLUFFS    FAIR      48  36  61 NW21G29   30.25R

$$




USA.gov is the U.S. government's official web portal to all federal, state and local government web resources and services.